Miscellaneous Local Product
Issued by NWS Hastings, NE

Home | Current Version | Previous Version | Graphics & Text | Print | Product List | Glossary On
Versions: 1 2 3 4 5 6 7 8 9 10 11 12 13 14 15 16 17 18 19 20 21 22 23 24 25 26 27 28 29 30 31 32 33 34 35 36 37 38 39 40 41 42 43 44 45 46 47 48 49 50
079
AXUS43 KGID 121402
MISGRI

GID CWA HOURLY WEATHER ROUNDUP
NATIONAL WEATHER SERVICE HASTINGS NE
800 AM CST FRI FEB 12 2016

NOTE: "FAIR" INDICATES FEW OR NO CLOUDS BELOW 12,000 FEET WITH NO
SIGNIFICANT WEATHER AND/OR OBSTRUCTIONS TO VISIBILITY.

...SOUTH CENTRAL NEBRASKA...

CITY           SKY/WX    TMP DP  RH WIND       PRES   REMARKS
GRAND ISLAND   CLOUDY    27  23  85 N6        30.40R WCI  20
HASTINGS       CLOUDY    28  23  81 N9        30.38R WCI  19
KEARNEY        CLOUDY    28  25  86 N8        30.38R WCI  20
ORD            CLOUDY    27  24  89 NW5       30.37R WCI  22
YORK           CLOUDY    27  25  93 N7        30.40R WCI  19
AURORA         CLOUDY    27  24  87 N7        30.39R WCI  20
LEXINGTON      CLOUDY    32  29  88 N7        30.37R WCI  26
HOLDREGE       CLOUDY    31  28  90 N7        30.36R WCI  24
HEBRON         CLOUDY    28  25  87 N5        30.40R WCI  23

...NEBRASKA PANHANDLE...

CITY           SKY/WX    TMP DP  RH WIND       PRES   REMARKS
CHADRON        CLOUDY    31  30  96 NE7       30.35R FOG     WCI  24
ALLIANCE       FOG       25  24  96 NE12      30.31R VSB 1   WCI  14
SCOTTSBLUFF    CLOUDY    32  28  85 CALM      30.30R
SIDNEY         CLOUDY    30  27  88 W8        30.30R WCI  22

...WESTERN AND NORTH CENTRAL NEBRASKA...

CITY           SKY/WX    TMP DP  RH WIND       PRES   REMARKS
VALENTINE      CLOUDY    24  22  91 N12       30.39R WCI  13
AINSWORTH      CLOUDY    25  25  97 N14       30.38R FOG     WCI  14
ONEILL         CLOUDY    22  21  95 N14       30.40R FOG     WCI   9
BROKEN BOW     CLOUDY    31  28  89 N8        30.35R WCI  23
IMPERIAL       CLOUDY    24  21  88 CALM      30.32R
NORTH PLATTE   CLOUDY    33  29  85 N3        30.35R
MCCOOK         CLOUDY    24  23  96 W7        30.36R WCI  16

...EASTERN NEBRASKA...

CITY           SKY/WX    TMP DP  RH WIND       PRES   REMARKS
NORFOLK        CLOUDY    22  17  81 N17       30.40R WCI   8
SO SIOUX CITY  CLOUDY    22  15  75 N16       30.42R WCI   8
TEKAMAH        CLOUDY    21  17  84 N15       30.42R WCI   8
COLUMBUS       CLOUDY    25  12  58 NW8       30.41R WCI  16
ALBION         CLOUDY    25  20  83 N6        30.39R WCI  18
OMAHA EPPLEY   CLOUDY    21  17  84 N13       30.40R WCI   9
OFFUTT AFB     CLOUDY    22  17  80 VRB7      30.39S WCI  14
MILLARD        CLOUDY    23  17  78 NW6       30.40R WCI  16
LINCOLN        CLOUDY    24  19  81 N12       30.43R WCI  13
NEBRASKA CITY  CLOUDY    24  19  81 N16       30.40R WCI  10
BEATRICE       CLOUDY    27  23  84 N15       30.40R WCI  15
FALLS CITY     CLOUDY    28  21  75 NW14      30.38R WCI  17

...NORTHERN KANSAS...

CITY           SKY/WX    TMP DP  RH WIND       PRES   REMARKS
GOODLAND       CLOUDY    28  24  85 W8        30.31R WCI  20
HILL CITY      CLEAR     26  24  92 N3        30.38R
NORTON         SUNNY     25  21  86 NW3       30.36R
SMITH CENTER   CLOUDY    28  27  93 N12       30.40R WCI  18
BELOIT         CLOUDY    28  25  86 N6        30.40R WCI  22
HAYS           CLEAR     27  18  69 CALM      30.37R
RUSSELL        CLOUDY    30  28  92 N14       30.36R WCI  19
CONCORDIA      CLOUDY    28  24  85 N12       30.39R WCI  18
SALINA         CLOUDY    31  26  82 N7        30.40R WCI  24
TOPEKA         CLOUDY    31  24  75 N12       30.37R WCI  22



USA.gov is the U.S. government's official web portal to all federal, state and local government web resources and services.